Franklin, PA

1:15 AM EDT on October 24, 2019 (GMT -0400)
Venango Regional

Weather History for KFKL - August, 2019

Change the Weather History Date:

Wednesday, August 28, 2019

  Actual Average Record
Temperature  
Mean Temperature 69 °F -  
Max Temperature 77 °F 81 °F 94 °F (1953)
Min Temperature 59 °F 56 °F 37 °F (1971)
Cooling Degree Days 4    
Growing Degree Days 19 (Base 50)    
Moisture  
Dew Point 63 °F    
Average Humidity 82    
Maximum Humidity 100    
Minimum Humidity 47    
Precipitation  
Precipitation 0.12 in - - ()
Sea Level Pressure  
Sea Level Pressure 29.91 in    
Wind  
Wind Speed 7 mph (WSW)    
Max Wind Speed 14 mph    
Max Gust Speed 21 mph    
Visibility 8 miles    
Events Rain , Thunderstorm    
Averages and records for this station are not official NWS values.
T = Trace of Precipitation, MM = Missing Value Source: NWS Daily Summary

Daily Weather History Graph

Daily Weather History Graph

Search for Another Location

Airport or City:

Astronomy

Aug. 28, 2019 Rise Set
Actual Time 6:41 AM EDT 7:59 PM EDT
Civil Twilight 6:12 AM EDT 8:27 PM EDT
Nautical Twilight 5:38 AM EDT 9:02 PM EDT
Astronomical Twilight 5:01 AM EDT 9:38 PM EDT
Moon 4:09 AM EDT (8/28) 7:11 PM EDT (8/28)
Length of Visible Light 14h 15m
Length of Day
13h 17m
Waning Crescent, 5% of the Moon is Illuminated
Aug 28
Waning Crescent
Aug 30
New
Sep 5
First Quarter
Sep 14
Full
Sep 21
Last Quarter

Hourly Weather History & Observations

Time (EDT) Temp. Dew Point Humidity Pressure Visibility Wind Dir Wind Speed Gust Speed Precip Events Conditions
12:17 AM 68.0 °F 66.2 °F 94% 29.92 in 10.0 mi South 9.2 mph - 0.00 in   Overcast
12:49 AM 68.0 °F 66.2 °F 94% 29.92 in 10.0 mi South 6.9 mph - 0.00 in   Overcast
12:56 AM 68.0 °F 66.9 °F 96% 29.90 in 10.0 mi South 6.9 mph - 0.00 in   Overcast
1:11 AM 68.0 °F 66.2 °F 94% 29.91 in 8.0 mi SSW 4.6 mph - 0.00 in Rain Light Rain
1:25 AM 68.0 °F 66.2 °F 94% 29.91 in 10.0 mi South 6.9 mph - 0.01 in Rain , Thunderstorm Light Thunderstorms and Rain
1:40 AM 68.0 °F 66.2 °F 94% 29.91 in 4.0 mi SSW 8.1 mph - 0.08 in Rain Rain
1:56 AM 68.0 °F 66.9 °F 96% 29.89 in 3.0 mi SW 6.9 mph - 0.11 in Rain Light Rain
2:56 AM 68.0 °F 66.9 °F 96% 29.88 in 6.0 mi WSW 5.8 mph - 0.01 in   Overcast
3:35 AM 68.0 °F 66.2 °F 94% 29.89 in 5.0 mi WSW 4.6 mph - N/A   Overcast
3:45 AM 68.0 °F 66.2 °F 94% 29.89 in 6.0 mi WSW 4.6 mph - N/A   Overcast
3:52 AM 68.0 °F 66.2 °F 94% 29.89 in 6.0 mi WSW 5.8 mph - N/A   Overcast
3:56 AM 68.0 °F 66.9 °F 96% 29.88 in 6.0 mi WSW 5.8 mph - N/A   Overcast
4:04 AM 68.0 °F 66.2 °F 94% 29.89 in 5.0 mi West 5.8 mph - N/A   Overcast
4:56 AM 66.9 °F 66.9 °F 100% 29.87 in 5.0 mi WSW 4.6 mph - N/A   Overcast
5:56 AM 66.9 °F 66.9 °F 100% 29.88 in 4.0 mi West 4.6 mph - N/A   Overcast
6:06 AM 66.2 °F 66.2 °F 100% 29.90 in 4.0 mi Calm Calm - N/A   Overcast
6:37 AM 66.2 °F 66.2 °F 100% 29.91 in 5.0 mi West 5.8 mph - N/A   Overcast
6:56 AM 66.9 °F 66.0 °F 97% 29.89 in 4.0 mi West 4.6 mph - N/A   Overcast
7:56 AM 66.0 °F 64.9 °F 96% 29.90 in 3.0 mi West 4.6 mph - N/A   Mostly Cloudy
8:56 AM 66.9 °F 66.0 °F 97% 29.89 in 6.0 mi West 6.9 mph - N/A   Scattered Clouds
9:56 AM 70.0 °F 66.0 °F 87% 29.90 in 10.0 mi West 5.8 mph - N/A   Partly Cloudy
10:56 AM 71.1 °F 64.9 °F 81% 29.90 in 10.0 mi West 12.7 mph - N/A   Mostly Cloudy
11:16 AM 71.6 °F 64.4 °F 78% 29.93 in 10.0 mi West 8.1 mph - N/A   Mostly Cloudy
11:33 AM 71.6 °F 64.4 °F 78% 29.93 in 10.0 mi Variable 5.8 mph - N/A   Mostly Cloudy
11:43 AM 73.4 °F 64.4 °F 73% 29.93 in 10.0 mi West 10.4 mph - N/A   Mostly Cloudy
11:53 AM 71.6 °F 64.4 °F 78% 29.93 in 10.0 mi West 6.9 mph - N/A   Mostly Cloudy
11:56 AM 71.1 °F 64.0 °F 78% 29.90 in 10.0 mi West 6.9 mph - N/A   Mostly Cloudy
12:56 PM 75.9 °F 62.1 °F 62% 29.89 in 10.0 mi West 10.4 mph - N/A   Scattered Clouds
1:56 PM 75.9 °F 59.0 °F 56% 29.89 in 10.0 mi West 13.8 mph 20.7 mph N/A   Partly Cloudy
2:56 PM 77.0 °F 57.9 °F 52% 29.88 in 10.0 mi West 13.8 mph 18.4 mph N/A   Partly Cloudy
3:56 PM 77.0 °F 55.0 °F 47% 29.89 in 10.0 mi West 11.5 mph 16.1 mph N/A   Scattered Clouds
4:56 PM 75.0 °F 54.0 °F 48% 29.90 in 10.0 mi WNW 10.4 mph 18.4 mph N/A   Partly Cloudy
5:56 PM 73.9 °F 53.1 °F 48% 29.91 in 10.0 mi West 10.4 mph - N/A   Scattered Clouds
6:56 PM 70.0 °F 54.0 °F 57% 29.92 in 10.0 mi West 5.8 mph - N/A   Clear
7:56 PM 66.9 °F 54.0 °F 63% 29.93 in 10.0 mi West 5.8 mph - N/A   Partly Cloudy
8:56 PM 63.0 °F 54.0 °F 72% 29.95 in 10.0 mi West 4.6 mph - N/A   Partly Cloudy
9:56 PM 62.1 °F 54.0 °F 75% 29.97 in 10.0 mi West 4.6 mph - N/A   Clear
10:56 PM 61.0 °F 53.1 °F 75% 29.97 in 10.0 mi West 5.8 mph - N/A   Clear
11:56 PM 59.0 °F 52.0 °F 78% 29.97 in 10.0 mi West 6.9 mph - N/A   Clear